Weather in Zhelty Yar

Russia / Jewish Autonomous Oblast     48°34′12″N   133°03′25″E
temp.,
°C
wind,
m/s
gust,
m/s
humid.,
%
clouds,
%
prec.,
mm/h
press.,
hPa
HPBL,
m
19 september, sun
sun1901:00+8wnw246579 0.0 101988
04:00+7wsw336899 0.0 101855
07:00+7w3569100 0.0 1018100
10:00+10wsw4961100 0.1 1019492
13:00+15w5645100 0.0 10181296
16:00+16wsw56396 0.0 10161954
19:00+12sw385322 0.0 1017186
22:00+9wsw410720 0.0 1019260
20 september, mon
mon2001:00+7wsw34830 0.0 101973
04:00+6wsw34810 0.0 102069
07:00+6wsw238136 0.0 102047
10:00+12w375497 0.0 1020370
13:00+17w4541100 0.0 10181066
16:00+18w3437100 0.0 10171202
19:00+13wsw2253100 0.0 101713
22:00+11sw2255100 0.0 101612
21 september, tue
tue2101:00+10ssw1156100 0.0 101614
04:00+9ene1159100 0.0 101510
07:00+10ene2256100 0.0 101450
10:00+12ene2257100 0.0 1014196
13:00+12e2266100 0.2 1013358
16:00+10ene2491100 1.4 1012261
19:00+10ene3898100 2.1 1011386
22:00+9ne41197100 4.0 1011416
22 september, wed
wed2201:00+9ne51394100 2.8 1011573
04:00+10ene61590100 3.7 1010678
07:00+10ne41584100 0.3 1010720
10:00+11ene61474100 0.3 1010792
13:00+12ene71466100 0.1 1011902
16:00+12ene61376100 0.1 1012815
19:00+12ene61371100 0.0 1013902
22:00+13ene61467100 0.0 1014842
23 september, thu
thu2301:00+13ene71464100 0.0 1015857
04:00+11ne61461100 0.0 1016733
07:00+10ene61468100 0.3 1018635
10:00+10ene61371100 0.8 1020703
13:00+11ene51166100 0.0 1020734
16:00+12ene3964100 0.0 1021674
19:00+11se1174100 0.1 102213
22:00+10nne228042 0.1 102327